When you browse on this site, cookies collect data to enhance your experience and personalize the content and advertising you see.
Visit our Privacy Policy to learn more. By continuing to use the site, you agree to this use of cookies and data.
  • Em Portugal
  • Lista de países
  • Para 7 dias
  • Temperatura da água
  • Mapa do tempo
  • Widgets de tempo
  • user-avatar
    Iniciar Sessão

    Previsão horária em Balyksa

    Hoje, 3 Junho, Quarta-feira

    Tempo Temperatura Precipitação Vento Pressão Humidade
    00:00 +12°C° 0 mm 2 m/s 715 mmHg 96%
    01:00 +12°C° 0 mm 2 m/s 715 mmHg 96%
    02:00 +12°C° 0 mm 2 m/s 715 mmHg 97%
    03:00 +12°C° 0 mm 2 m/s 715 mmHg 98%
    04:00 +11°C° 0.1 mm 3 m/s 715 mmHg 97%
    05:00 +12°C° 0.1 mm 3 m/s 715 mmHg 95%
    06:00 +12°C° 0 mm 4 m/s 715 mmHg 96%
    07:00 +13°C° 0.2 mm 4 m/s 715 mmHg 91%
    08:00 +13°C° 0.2 mm 5 m/s 716 mmHg 85%
    09:00 +13°C° 0.2 mm 6 m/s 716 mmHg 80%
    10:00 +13°C° 0.3 mm 6 m/s 716 mmHg 78%
    11:00 +13°C° 0.3 mm 6 m/s 717 mmHg 75%
    12:00 +13°C° 0.3 mm 6 m/s 717 mmHg 72%
    13:00 +13°C° 0.2 mm 5 m/s 717 mmHg 70%
    14:00 +14°C° 0.2 mm 5 m/s 718 mmHg 68%
    15:00 +14°C° 0.2 mm 5 m/s 718 mmHg 66%
    16:00 +13°C° 0.1 mm 4 m/s 718 mmHg 68%
    17:00 +13°C° 0.1 mm 3 m/s 719 mmHg 69%
    18:00 +12°C° 0.1 mm 3 m/s 719 mmHg 70%
    19:00 +12°C° 0 mm 2 m/s 719 mmHg 77%
    20:00 +10°C° 0 mm 1 m/s 719 mmHg 85%
    21:00 +9°C° 0 mm 1 m/s 719 mmHg 92%
    22:00 +8°C° 0 mm 1 m/s 719 mmHg 93%
    23:00 +8°C° 0 mm 1 m/s 719 mmHg 93%

    Amanhã, 4 Junho, Quinta-feira

    Tempo Temperatura Precipitação Vento Pressão Humidade
    00:00 +7°C° 0 mm 0 m/s 719 mmHg 93%
    01:00 +6°C° 0 mm 0 m/s 718 mmHg 93%
    02:00 +6°C° 0 mm 0 m/s 718 mmHg 93%
    03:00 +6°C° 0 mm 0 m/s 718 mmHg 93%
    04:00 +7°C° 0 mm 0 m/s 718 mmHg 90%
    05:00 +9°C° 0 mm 0 m/s 718 mmHg 86%
    06:00 +10°C° 0 mm 0 m/s 718 mmHg 83%
    07:00 +12°C° 0 mm 1 m/s 717 mmHg 72%
    08:00 +14°C° 0 mm 1 m/s 717 mmHg 61%
    09:00 +15°C° 0 mm 2 m/s 717 mmHg 50%
    10:00 +15°C° 0.2 mm 2 m/s 717 mmHg 54%
    11:00 +16°C° 0.2 mm 2 m/s 717 mmHg 57%
    12:00 +16°C° 0.2 mm 3 m/s 716 mmHg 60%
    13:00 +16°C° 0.2 mm 3 m/s 716 mmHg 58%
    14:00 +16°C° 0.2 mm 3 m/s 715 mmHg 56%
    15:00 +17°C° 0.2 mm 3 m/s 715 mmHg 54%
    16:00 +16°C° 0.1 mm 2 m/s 715 mmHg 54%
    17:00 +16°C° 0.1 mm 2 m/s 715 mmHg 54%
    18:00 +16°C° 0.1 mm 2 m/s 715 mmHg 54%
    19:00 +14°C° 0 mm 2 m/s 715 mmHg 65%
    20:00 +12°C° 0 mm 1 m/s 715 mmHg 76%
    21:00 +9°C° 0 mm 1 m/s 715 mmHg 88%
    22:00 +9°C° 0.1 mm 1 m/s 714 mmHg 89%
    23:00 +9°C° 0.1 mm 1 m/s 714 mmHg 90%

    Depois de amanhã, 5 Junho, Sexta-feira

    Tempo Temperatura Precipitação Vento Pressão Humidade
    00:00 +9°C° 0.1 mm 1 m/s 714 mmHg 91%
    01:00 +8°C° 0.1 mm 0 m/s 714 mmHg 92%
    02:00 +8°C° 0.1 mm 0 m/s 714 mmHg 93%
    03:00 +7°C° 0.1 mm 0 m/s 713 mmHg 94%
    04:00 +8°C° 0.2 mm 0 m/s 713 mmHg 94%
    05:00 +8°C° 0.2 mm 0 m/s 713 mmHg 94%
    06:00 +9°C° 0.2 mm 0 m/s 714 mmHg 94%
    07:00 +9°C° 0.3 mm 0 m/s 714 mmHg 91%
    08:00 +10°C° 0.3 mm 1 m/s 714 mmHg 89%
    09:00 +11°C° 0.3 mm 1 m/s 714 mmHg 87%
    10:00 +10°C° 0.5 mm 2 m/s 715 mmHg 88%
    11:00 +10°C° 0.5 mm 2 m/s 715 mmHg 89%
    12:00 +9°C° 0.5 mm 3 m/s 716 mmHg 90%
    13:00 +10°C° 0.2 mm 3 m/s 716 mmHg 87%
    14:00 +10°C° 0.2 mm 3 m/s 716 mmHg 84%
    15:00 +10°C° 0.2 mm 2 m/s 716 mmHg 80%
    16:00 +10°C° 0.1 mm 2 m/s 716 mmHg 77%
    17:00 +10°C° 0.1 mm 2 m/s 716 mmHg 74%
    18:00 +12°C° 0.1 mm 2 m/s 716 mmHg 71%
    19:00 +9°C° 0 mm 2 m/s 716 mmHg 78%
    20:00 +8°C° 0 mm 2 m/s 716 mmHg 86%
    21:00 +7°C° 0 mm 2 m/s 716 mmHg 93%
    22:00 +7°C° 0.1 mm 2 m/s 717 mmHg 94%
    23:00 +7°C° 0.1 mm 2 m/s 717 mmHg 95%

    6 Junho, Sábado

    Tempo Temperatura Precipitação Vento Pressão Humidade
    00:00 +7°C° 0.1 mm 3 m/s 718 mmHg 96%
    01:00 +7°C° 0.5 mm 3 m/s 718 mmHg 96%
    02:00 +7°C° 0.5 mm 3 m/s 718 mmHg 97%
    03:00 +7°C° 0.5 mm 3 m/s 718 mmHg 97%
    04:00 +7°C° 0.4 mm 3 m/s 719 mmHg 97%
    05:00 +7°C° 0.4 mm 3 m/s 719 mmHg 97%
    06:00 +7°C° 0.4 mm 3 m/s 720 mmHg 98%
    07:00 +7°C° 0.2 mm 3 m/s 720 mmHg 97%
    08:00 +7°C° 0.2 mm 3 m/s 720 mmHg 96%
    09:00 +8°C° 0.2 mm 3 m/s 721 mmHg 95%
    10:00 +8°C° 0.1 mm 3 m/s 721 mmHg 94%
    11:00 +8°C° 0.1 mm 3 m/s 721 mmHg 93%
    12:00 +8°C° 0.1 mm 3 m/s 721 mmHg 92%
    13:00 +8°C° 0.6 mm 3 m/s 721 mmHg 93%
    14:00 +8°C° 0.6 mm 3 m/s 721 mmHg 94%
    15:00 +9°C° 0.6 mm 3 m/s 721 mmHg 95%
    16:00 +9°C° 0.3 mm 3 m/s 721 mmHg 96%
    17:00 +9°C° 0.3 mm 2 m/s 722 mmHg 96%
    18:00 +9°C° 0.3 mm 2 m/s 722 mmHg 97%
    19:00 +9°C° 0.3 mm 2 m/s 722 mmHg 98%
    20:00 +9°C° 0.3 mm 2 m/s 722 mmHg 98%
    21:00 +9°C° 0.3 mm 2 m/s 722 mmHg 99%
    22:00 +9°C° 0.5 mm 2 m/s 722 mmHg 99%
    23:00 +9°C° 0.5 mm 2 m/s 722 mmHg 99%

    7 Junho, Domingo

    Tempo Temperatura Precipitação Vento Pressão Humidade
    00:00 +9°C° 0.5 mm 2 m/s 722 mmHg 99%
    01:00 +9°C° 0.3 mm 2 m/s 721 mmHg 99%
    02:00 +9°C° 0.3 mm 2 m/s 721 mmHg 99%
    03:00 +9°C° 0.3 mm 2 m/s 721 mmHg 99%
    04:00 +9°C° 0.1 mm 2 m/s 721 mmHg 99%
    05:00 +9°C° 0.1 mm 2 m/s 720 mmHg 99%
    06:00 +10°C° 0.1 mm 2 m/s 720 mmHg 98%
    07:00 +10°C° 1.5 mm 2 m/s 720 mmHg 98%
    08:00 +10°C° 1.5 mm 2 m/s 720 mmHg 97%
    09:00 +10°C° 1.5 mm 3 m/s 720 mmHg 97%
    10:00 +11°C° 0.8 mm 3 m/s 720 mmHg 93%
    11:00 +11°C° 0.8 mm 3 m/s 719 mmHg 90%
    12:00 +12°C° 0.8 mm 3 m/s 719 mmHg 86%
    13:00 +13°C° 0.7 mm 2 m/s 719 mmHg 87%
    14:00 +13°C° 0.7 mm 2 m/s 719 mmHg 87%
    15:00 +13°C° 0.7 mm 2 m/s 719 mmHg 88%
    16:00 +13°C° 0.4 mm 2 m/s 719 mmHg 87%
    17:00 +13°C° 0.4 mm 2 m/s 720 mmHg 86%
    18:00 +13°C° 0.4 mm 2 m/s 720 mmHg 86%
    19:00 +10°C° 0.1 mm 2 m/s 720 mmHg 89%
    20:00 +10°C° 0.1 mm 1 m/s 720 mmHg 93%
    21:00 +8°C° 0.1 mm 1 m/s 721 mmHg 97%
    22:00 +8°C° 0 mm 1 m/s 721 mmHg 97%
    23:00 +7°C° 0 mm 1 m/s 721 mmHg 98%

    8 Junho, Segunda-feira

    Tempo Temperatura Precipitação Vento Pressão Humidade
    00:00 +6°C° 0 mm 1 m/s 721 mmHg 98%
    01:00 +6°C° 0 mm 1 m/s 721 mmHg 98%
    02:00 +6°C° 0 mm 1 m/s 721 mmHg 98%
    03:00 +6°C° 0 mm 1 m/s 721 mmHg 98%
    04:00 +7°C° 0.1 mm 1 m/s 721 mmHg 97%
    05:00 +8°C° 0.1 mm 1 m/s 721 mmHg 97%
    06:00 +9°C° 0.1 mm 1 m/s 722 mmHg 96%
    07:00 +9°C° 0.4 mm 2 m/s 722 mmHg 92%
    08:00 +10°C° 0.4 mm 2 m/s 722 mmHg 88%
    09:00 +11°C° 0.4 mm 3 m/s 722 mmHg 83%
    10:00 +12°C° 0.1 mm 3 m/s 721 mmHg 72%
    11:00 +13°C° 0.1 mm 4 m/s 721 mmHg 61%
    12:00 +14°C° 0.1 mm 4 m/s 721 mmHg 49%
    13:00 +15°C° 0.1 mm 4 m/s 721 mmHg 48%
    14:00 +15°C° 0.1 mm 4 m/s 721 mmHg 47%
    15:00 +15°C° 0.1 mm 5 m/s 721 mmHg 46%
    16:00 +15°C° 0 mm 4 m/s 721 mmHg 49%
    17:00 +15°C° 0 mm 4 m/s 721 mmHg 52%
    18:00 +14°C° 0 mm 3 m/s 721 mmHg 54%
    19:00 +13°C° 0 mm 2 m/s 721 mmHg 66%
    20:00 +10°C° 0 mm 1 m/s 721 mmHg 77%
    21:00 +8°C° 0 mm 1 m/s 721 mmHg 89%
    22:00 +7°C° 0 mm 0 m/s 721 mmHg 90%
    23:00 +6°C° 0 mm 0 m/s 721 mmHg 91%
    Mostrar mais